Regional Weather Roundup
Issued by NWS

Home | Current Version | Previous Version | Graphics & Text | Print | Product List | Glossary On
Versions: 1 2 3 4 5 6 7 8 9 10 11 12 13 14 15 16 17 18 19 20 21 22 23 24 25 26 27 28 29 30 31 32 33 34 35 36 37 38 39 40 41 42 43 44 45 46 47 48 49 50
000
ASUS45 KABQ 270510
RWRNM
WEATHER ROUNDUP FOR NEW MEXICO
NATIONAL WEATHER SERVICE ALBUQUERQUE NM
1000 PM MST FRI DEC 26 2014

NOTE: "FAIR" MEANS FEW OR NO CLOUDS BELOW 12,000 FEET AGL WITH NO
       SIGNIFICANT WEATHER OR OBSTRUCTIONS TO VISION.

      THIS PRODUCT IS RELEASED AS TWO VERSIONS.  ONE VERSION NEAR
      THE TOP OF THE HOUR CONTAINING PRELIMINARY DATA FROM ALBUQUERQUE
      AND OTHER STATIONS.  A FINAL VERSION WITH ADDITIONAL DATA IS
      ISSUED ABOUT 10 MINUTES AFTER THE HOUR.

NMZ501-503-504-510>518-270600-
NORTHWEST PLATEAU/NORTHCENTRAL MOUNTAINS

CITY           SKY/WX    TMP DP  RH WIND       PRES   REMARKS
FARMINGTON     PTCLDY    13  10  88 NW5       30.03R WCI   5
LOS ALAMOS     PTCLDY    20  10  63 CALM      30.00S
SANTA FE       PTCLDY    11   5  77 N6        30.02R WCI   1
TAOS           PTCLDY    12   7  79 SE6       30.01R WCI   3
ANGEL FIRE     CLOUDY    13   7  77 SE5       29.96S WCI   5

$$
NMZ402-403-502-505>509-270600-
WESTCENTRAL MOUNTAINS/SOUTHWEST MOUNTAINS

CITY           SKY/WX    TMP DP  RH WIND       PRES   REMARKS
GALLUP         PTCLDY     2  -1  88 CALM      30.04R
GRANTS         CLEAR     12   8  85 W12       30.04R WCI  -2
SILVER CITY    CLEAR     27   9  46 NW13      30.03R WCI  16

$$
NMZ407-409-411-412-270600-
SOUTHERN DESERTS

CITY           SKY/WX    TMP DP  RH WIND       PRES   REMARKS
LORDSBURG      FAIR      30  18  59 E3        30.04R
DEMING         MOCLDY    30  19  63 W6        30.04R WCI  24
LAS CRUCES     CLOUDY    35  27  70 SW6       30.03R WCI  30
HOLLOMAN AFB   PTCLDY    37  28  70 S2        30.02S
ALAMOGORDO     CLOUDY    37  28  70 CALM      30.03S
T OR C         CLEAR     30   9  41 N6        30.04R WCI  24

$$
NMZ519>523-270600-
CENTRAL VALLEYS/CENTRAL HIGHLANDS

CITY           SKY/WX    TMP DP  RH WIND       PRES   REMARKS
ALBUQUERQUE    CLEAR     26  12  55 SE3       30.06R
DOUBLE EAGLE   CLEAR     18  10  69 NW6       30.06R WCI  10
MORIARTY ARPT  FAIR       0  -4  84 N3        30.03R
CLINES CORNERS PTCLDY    10   5  80 CALM      29.96R
BELEN          MOCLDY    19  13  77 N3        30.06R
SOCORRO        FAIR      28  10  46 E6        30.07R WCI  21

$$
NMZ524>526-539-540-270600-
SOUTHCENTRAL MOUNTAINS

CITY           SKY/WX    TMP DP  RH WIND       PRES   REMARKS
RUIDOSO        MOCLDY    19   5  53 W9        30.05R WCI   9

$$
NMZ527>531-270600-
NORTHEAST HIGHLANDS/NORTHEAST PLAINS

CITY           SKY/WX    TMP DP  RH WIND       PRES   REMARKS
LAS VEGAS      FOG       12   9  87 NE5       29.99R VSB 1/2 WCI   4
RATON          CLOUDY    15  10  80 CALM      30.01R
CLAYTON        PTCLDY    14  11  87 NW7       30.07R WCI   4

$$
NMZ532>537-270600-
EASTCENTRAL PLAINS

CITY           SKY/WX    TMP DP  RH WIND       PRES   REMARKS
TUCUMCARI      CLEAR     15  12  88 NE5       30.09R WCI   8
CANNON AFB     MOCLDY    25  22  86 NE13      30.04F WCI  14
CLOVIS AIRPORT CLOUDY    27  19  74 N12       30.06F WCI  16

$$
NMZ028-029-538-270600-
SOUTHEAST PLAINS

CITY           SKY/WX    TMP DP  RH WIND       PRES   REMARKS
ROSWELL        CLOUDY    36  26  67 N8        30.08R WCI  30
ARTESIA        CLOUDY    41  28  60 N10       30.07S
CARLSBAD       RAIN      41  35  79 N8        30.06R
HOBBS          MOCLDY    39  36  87 N12       30.07R WCI  32


$$


USA.gov is the U.S. government's official web portal to all federal, state and local government web resources and services.